Regional Weather Roundup
Issued by NWS

Home | Current Version | Previous Version | Graphics & Text | Print | Product List | Glossary On
Versions: 1 2 3 4 5 6 7 8 9 10 11 12 13 14 15 16 17 18 19 20 21 22 23 24 25 26 27 28 29 30 31 32 33 34 35 36 37 38 39 40 41 42 43 44 45 46 47 48 49 50
000
ASUS43 KLMK 231102
RWRKY
KENTUCKY REGIONAL WEATHER ROUNDUP
NATIONAL WEATHER SERVICE LOUISVILLE KY
700 AM EDT WED AUG 23 2017

NOTE "FAIR" INDICATES FEW OR NO CLOUDS BELOW 12,000 FEET
WITH NO SIGNIFICANT WEATHER AND/OR OBSTRUCTIONS TO VISIBILITY.

KYZ001>023-026-027-061>063-070>075-231200-
WESTERN AND SOUTH CENTRAL KENTUCKY

CITY           SKY/WX    TMP DP  RH WIND       PRES   REMARKS
PADUCAH        CLEAR     64  59  83 N6        30.04R
HENDERSON      NOT AVBL
OWENSBORO      CLEAR     63  60  90 NW3       30.03R
HOPKINSVILLE   PTCLDY    67  67 100 CALM      30.03R
BOWLING GREEN  CLEAR     68  66  93 NW3       30.02R
GLASGOW        CLEAR     65  65 100 CALM      30.01R
$$

KYZ024-025-028>034-038-045-046-053-231200-
NORTH CENTRAL KENTUCKY

CITY           SKY/WX    TMP DP  RH WIND       PRES   REMARKS
LOUISVILLE/SDF PTCLDY    66  61  84 N6        30.00R
LOUISVILLE/LOU CLEAR     64  63  96 CALM      30.00R
FORT KNOX      CLEAR     62  61  96 NW6       29.99R
$$

KYZ035>037-039>044-047>052-055>060-089>105-231200-
NORTHEAST KENTUCKY

CITY           SKY/WX    TMP DP  RH WIND       PRES   REMARKS
LEXINGTON      PTCLDY    66  63  90 N5        30.00R
COVINGTON      PTCLDY    63  59  87 N7        30.00R
FRANKFORT      CLEAR     67  63  87 N3        29.98R
$$

KYZ054-064>069-076>088-106>120-231200-
SOUTHEAST KENTUCKY

CITY           SKY/WX    TMP DP  RH WIND       PRES   REMARKS
JACKSON        CLOUDY    69  68  96 NW3       29.99R FOG
LONDON         MOCLDY    70  67  90 NW5       29.99R
SOMERSET       NOT AVBL
MIDDLESBORO    CLOUDY    71  70  96 CALM      29.99R
MONTICELLO     CLOUDY    70  69  97 NW5       30.02R
$$





USA.gov is the U.S. government's official web portal to all federal, state and local government web resources and services.